Weather History for New York JFK, NY

Change the Weather History Date:

Friday, September 6, 2013

  Actual Average Record
Temperature  
Mean Temperature 64 °F 71 °F  
Max Temperature 72 °F 78 °F 92 °F (1985)
Min Temperature 56 °F 64 °F 52 °F (1963)
Degree Days  
Heating Degree Days 1 0  
Month to date heating degree days 1 0  
Since 1 July heating degree days 1 1  
Cooling Degree Days 0 7  
Month to date cooling degree days 55 43  
Year to date cooling degree days 1014 904  
Growing Degree Days 14 (Base 50)    
Moisture  
Dew Point 43 °F    
Average Humidity 47    
Maximum Humidity 62    
Minimum Humidity 31    
Precipitation  
Precipitation 0.00 in 0.10 in 2.51 in (2008)
Month to date precipitation 0.03 0.65  
Year to date precipitation 26.22 29.61  
Snow  
Snow 0.00 in 0.00 in - ()
Month to date snowfall 0.0 0.0  
Since 1 July snowfall 0.0 0.0  
Snow Depth 0.00 in    
Sea Level Pressure  
Sea Level Pressure 30.20 in    
Wind  
Wind Speed 8 mph (NNE)    
Max Wind Speed 16 mph    
Max Gust Speed 20 mph    
Visibility 10 miles    
Events      
T = Trace of Precipitation, MM = Missing Value Source: NWS Daily Summary

Daily Weather History Graph

Daily Weather History Graph

Search for Another Location

Airport:

Trip Planner

Search our weather history database for the weather conditions in past years. The results will help you decide how hot, cold, wet, or windy it might be!

Date:

Astronomy

Sep. 06, 2013 Rise Set
Actual Time 6:27 AM EDT 7:18 PM EDT
Civil Twilight 5:59 AM EDT 7:46 PM EDT
Nautical Twilight 5:26 AM EDT 8:19 PM EDT
Astronomical Twilight 4:52 AM EDT 8:53 PM EDT
Moon 7:37 AM EDT (9/6) 7:40 PM EDT (9/6)
Length of Visible Light 13h 47m
Length of Day
12h 51m
New Moon, 1% of the Moon is Illuminated
Sep 6
New Moon
Sep 12
First Quarter
Sep 19
Full
Sep 26
Last Quarter
Oct 4
New

Hourly Weather History & Observations

Time (EDT) Temp. Dew Point Humidity Pressure Visibility Wind Dir Wind Speed Gust Speed Precip Events Conditions
12:51 AM 64.0 °F 37.9 °F 38% 30.17 in 10.0 mi North 15.0 mph - N/A   Partly Cloudy
1:51 AM 62.1 °F 41.0 °F 46% 30.18 in 10.0 mi North 9.2 mph - N/A   Clear
2:51 AM 61.0 °F 39.9 °F 46% 30.19 in 10.0 mi North 12.7 mph - N/A   Clear
3:51 AM 59.0 °F 41.0 °F 51% 30.19 in 10.0 mi North 13.8 mph - N/A   Clear
4:51 AM 57.0 °F 43.0 °F 59% 30.20 in 10.0 mi North 11.5 mph - N/A   Clear
5:51 AM 57.0 °F 43.0 °F 59% 30.21 in 10.0 mi North 9.2 mph - N/A   Scattered Clouds
6:51 AM 57.0 °F 44.1 °F 62% 30.23 in 10.0 mi North 9.2 mph - N/A   Mostly Cloudy
7:51 AM 61.0 °F 43.0 °F 52% 30.25 in 10.0 mi North 10.4 mph - N/A   Mostly Cloudy
8:51 AM 63.0 °F 41.0 °F 45% 30.26 in 10.0 mi NNE 13.8 mph - N/A   Mostly Cloudy
9:51 AM 64.9 °F 39.9 °F 40% 30.26 in 10.0 mi NE 12.7 mph - N/A   Mostly Cloudy
10:51 AM 68.0 °F 39.0 °F 35% 30.26 in 10.0 mi North 10.4 mph - N/A   Mostly Cloudy
11:51 AM 70.0 °F 39.9 °F 33% 30.26 in 10.0 mi North 4.6 mph - N/A   Mostly Cloudy
12:51 PM 69.1 °F 39.0 °F 33% 30.25 in 10.0 mi Variable 3.5 mph - N/A   Scattered Clouds
1:51 PM 72.0 °F 39.0 °F 30% 30.24 in 10.0 mi Calm Calm - N/A   Scattered Clouds
2:51 PM 70.0 °F 42.1 °F 36% 30.21 in 10.0 mi South 5.8 mph - N/A   Scattered Clouds
3:51 PM 69.1 °F 44.1 °F 40% 30.19 in 10.0 mi SSW 10.4 mph - N/A   Scattered Clouds
4:51 PM 69.1 °F 44.1 °F 40% 30.18 in 10.0 mi SSW 9.2 mph - N/A   Scattered Clouds
5:51 PM 68.0 °F 45.0 °F 43% 30.18 in 10.0 mi South 8.1 mph - N/A   Scattered Clouds
6:51 PM 66.0 °F 45.0 °F 47% 30.17 in 10.0 mi SSE 5.8 mph - N/A   Scattered Clouds
7:51 PM 64.9 °F 46.0 °F 50% 30.17 in 10.0 mi ESE 3.5 mph - N/A   Partly Cloudy
8:51 PM 64.0 °F 46.9 °F 54% 30.18 in 10.0 mi ESE 3.5 mph - N/A   Partly Cloudy
9:51 PM 64.0 °F 48.0 °F 56% 30.17 in 10.0 mi Calm Calm - N/A   Partly Cloudy
10:51 PM 63.0 °F 46.9 °F 56% 30.17 in 10.0 mi Calm Calm - N/A   Partly Cloudy
11:51 PM 62.1 °F 46.9 °F 58% 30.15 in 10.0 mi SW 5.8 mph - N/A   Clear